Location: Geroldsau
(48.7259°N, 8.2466°E)
Time: 09:57:56
(UTC+00:00)

Cosmos 1328 Rocket - Pass Details

Date: 20 June 2021
Orbit: 602 x 626 km, 82.5° (Epoch: 26 July)

Event Time Altitude Azimuth Distance (km) Brightness Sun altitude
Rises 02:24:02 0° 348° (NNW) 2,880 7.6 -7.9°
Reaches altitude 10° 02:26:16 10° 346° (NNW) 1,974 6.7 -7.7°
Maximum altitude 02:30:36 69° 264° (W) 658 3.6 -7.2°
Drops below altitude 10° 02:34:57 10° 181° (S) 1,972 5.7 -6.7°
Sets 02:37:10 0° 179° (S) 2,876 6.5 -6.5°
